Regional Weather Roundup
Issued by NWS Cleveland, OH

Home | Current Version | Previous Version | Text Only | Print | Product List | Glossary Off
Versions: 1 2 3 4 5 6 7 8 9 10 11 12 13 14 15 16 17 18 19 20 21 22 23 24 25 26 27 28 29 30 31 32 33 34 35 36 37 38 39 40 41 42 43 44 45 46 47 48 49 50

000
ASUS41 KCLE 180400
RWRCLE
OHIO REGIONAL WEATHER ROUNDUP
NATIONAL WEATHER SERVICE WILMINGTON, OH
1100 PM EST WED DEC 17 2014

NOTE: "FAIR" INDICATES FEW OR NO CLOUDS BELOW 12,000 FEET WITH NO
SIGNIFICANT WEATHER AND/OR OBSTRUCTIONS TO VISIBILITY.

OHZ001>008-015>018-024>027-034-035-043-044-180500-
   NORTHWEST OHIO

CITY           SKY/WX    TMP DP  RH WIND       PRES   REMARKS
DEFIANCE       NOT AVBL
FINDLAY        CLOUDY    28  22  78 W13       30.20R WCI  17
TOLEDO EXPRESS CLOUDY    29  20  69 W9        30.19S WCI  20
TOLEDO METCALF CLOUDY    30  18  60 W17       30.20S WCI  18
LIMA           CLOUDY    30  21  69 W14       30.22R WCI  19
$$

OHZ009>014-019>023-028>033-038-089-180500-
   NORTHEAST OHIO

CITY           SKY/WX    TMP DP  RH WIND       PRES   REMARKS
CLE-HOPKINS    FLURRIES  29  22  75 W12       30.17S WCI  19
CLE-LAKEFRONT  CLOUDY    32  23  69 W22       30.14R WCI  19
CUY CO. ARPT   FLURRIES  32  25  74 NW16G29   30.13S WCI  21
LORAIN-ELYRIA  CLOUDY    29  21  72 W14       30.16S WCI  18
ASHTABULA      FLURRIES  29  25  85 W9        30.10R WCI  20
AKRON-CANTON   CLOUDY    28  20  71 W14       30.14R WCI  17
WOOSTER        NOT AVBL
MANSFIELD      CLOUDY    26  21  81 W9        30.16R WCI  17
YOUNGSTOWN     FLURRIES  28  20  71 W13       30.10S WCI  17
$$

OHZ042-051>053-060>062-070>072-077>081-180500-
  SOUTHWEST OHIO

CITY           SKY/WX    TMP DP  RH WIND       PRES   REMARKS
CINC-COVINGTON CLOUDY    28  19  69 NW12      30.26S WCI  18
CINC-LUNKEN    CLOUDY    28  21  75 W7        30.30S WCI  21
HAMILTON       CLOUDY    27  20  75 N8        30.29S WCI  19
DAYTON         NOT AVBL
WRIGHT-PAT AFB NOT AVBL
DAYTON GENERAL CLOUDY    25  20  81 NW9       30.25S WCI  15
WILMINGTON     CLOUDY    25  18  74 NW10      30.24R WCI  15
$$

OHZ036-037-039>041-045>050-054>059-063>069-073>076-082>088-180500-
  CENTRAL AND SOUTHEAST OHIO

CITY           SKY/WX    TMP DP  RH WIND       PRES   REMARKS
COLUMBUS       CLOUDY    27  20  75 NW14      30.23S WCI  16
OSU AIRPORT    CLOUDY    27  19  72 W8        30.22S WCI  19
BOLTON FIELD   NOT AVBL
RICKENBACK AFB NOT AVBL
NEWARK         CLOUDY    28  19  69 NW14G23   30.22R WCI  17
MARION         CLOUDY    27  20  75 W9        30.21R WCI  18
LANCASTER      CLOUDY    27  20  75 W7        30.24R WCI  19
ZANESVILLE     CLOUDY    27  20  75 W8        30.20S WCI  19
NEW PHILLY     CLOUDY    29  20  69 W7        30.18S WCI  22
$$


USA.gov is the U.S. government's official web portal to all federal, state and local government web resources and services.